RH
54 55 62 69 72 75 78 82 85 85 85 83 82 80 77 74 71 70 69 69 68 67 67 69 70 69 68 67 66 65 65 65 67 69 71 73 74 75 77 79 80 82 84 85 86 87 91 89 84 88 92 91 92 92 94 95 95 98 99 95 90 79 67 70 81 85 83 80 73 59 52 50 41 33 30 28 25 25 34 54 74 76 76 82 82
67 69 69 68 68 71 75 80 82 80 80 81 81 78 74 70 67 65 63 65 66 66 66 67 67 65 63 63 62 63 63 64 66 66 66 66 67 69 73 76 79 83 85 86 89 90 92 91 87 90 93 94 93 92 94 95 96 97 97 98 95 90 81 74 77 83 87 85 80 67 56 53 49 40 33 29 27 27 26 38 64 75 75 81 84
72 73 70 67 68 70 73 77 78 76 78 80 79 74 69 65 62 60 61 65 68 67 66 64 63 62 59 59 60 61 62 64 66 66 65 64 65 67 71 75 79 81 83 84 88 90 90 90 88 92 95 95 94 93 92 94 97 96 95 96 93 94 92 83 79 81 88 92 89 81 70 62 58 51 41 33 28 28 28 31 53 73 76 80 85
74 73 70 69 70 71 71 72 74 76 79 79 75 68 63 62 60 61 63 66 68 67 66 63 60 58 56 56 58 59 61 63 64 64 64 64 65 67 70 73 75 77 81 83 86 86 87 88 88 91 93 92 92 94 91 91 96 94 95 97 93 93 93 90 88 86 89 95 95 92 84 76 69 61 49 40 31 28 30 29 44 69 76 79 84
78 77 74 73 72 71 73 75 79 81 81 77 71 65 62 64 64 66 69 70 70 69 68 64 60 59 60 61 63 63 63 63 64 63 63 64 64 66 68 69 70 74 78 82 85 85 86 86 87 89 89 87 88 94 91 87 91 93 95 97 94 93 92 92 95 93 93 94 95 96 92 84 76 68 56 46 37 29 28 28 38 60 74 79 82
80 81 79 77 74 76 80 82 83 82 80 77 71 67 66 68 70 73 74 71 67 64 62 61 63 66 68 70 69 68 67 66 66 66 66 66 66 68 69 70 72 74 77 78 80 82 83 84 87 89 89 90 89 93 94 88 89 92 95 97 94 94 93 94 95 94 95 94 92 96 96 90 82 75 64 52 44 35 30 27 31 49 68 79 82
81 84 83 79 78 80 81 82 81 81 81 78 72 69 70 71 72 73 71 65 60 58 58 61 64 67 71 74 72 70 70 69 69 68 67 67 70 73 76 76 74 74 75 76 78 81 82 82 85 85 85 89 88 89 94 92 90 90 93 95 95 95 94 95 95 92 93 93 91 95 98 96 91 86 80 68 54 42 35 28 27 38 58 76 83
83 85 81 76 76 79 79 78 79 81 81 77 72 70 70 68 68 66 62 56 53 54 54 54 55 57 64 68 68 69 69 70 70 69 70 72 76 80 79 76 74 74 74 77 81 83 83 83 83 83 82 83 82 82 85 89 91 91 92 93 94 95 94 94 94 93 93 92 93 96 97 96 96 95 93 86 70 53 42 34 27 29 47 68 81
82 79 74 71 73 77 78 76 76 76 76 73 71 70 66 64 64 60 55 50 49 48 44 42 42 44 50 55 60 66 67 70 71 72 77 80 82 82 77 74 75 78 79 80 83 84 85 85 85 86 85 83 82 80 80 82 87 91 92 93 94 94 96 96 93 92 93 93 96 98 96 94 96 97 97 95 84 66 49 42 32 26 38 58 74
79 74 73 74 74 76 77 76 75 74 71 70 69 66 62 60 59 55 50 45 42 39 34 33 33 34 42 45 50 60 65 68 73 76 80 83 82 79 75 76 78 79 82 84 86 86 86 85 85 85 86 85 84 82 81 79 80 85 89 93 94 93 96 97 94 92 94 97 98 97 96 97 97 95 96 97 93 79 57 48 42 30 34 53 68
77 74 77 79 77 79 81 81 81 77 72 70 68 63 59 55 54 51 47 40 35 32 28 29 29 30 38 40 42 52 59 66 74 79 81 83 81 77 77 81 81 82 85 86 87 88 89 88 86 85 84 83 83 81 81 79 77 79 83 89 94 95 95 95 92 92 95 96 99 100 98 97 96 94 95 95 96 93 71 52 48 37 33 52 67
77 77 78 79 78 80 83 84 83 79 74 71 67 64 59 54 51 47 41 34 30 29 28 28 28 27 32 35 34 39 48 60 73 80 83 83 79 75 77 81 83 84 86 88 88 90 91 92 91 89 87 85 84 82 81 80 79 76 76 81 88 93 95 94 90 90 95 96 96 98 98 96 94 94 94 93 95 99 87 65 57 46 33 46 67
80 81 80 80 80 80 82 83 83 79 75 71 67 64 59 53 47 39 32 29 27 26 27 27 25 23 24 26 26 30 39 54 72 82 83 81 76 68 64 72 79 76 75 79 82 82 79 81 84 86 89 89 87 85 83 82 82 79 77 77 78 82 87 90 88 89 96 99 96 93 97 99 94 91 92 92 93 96 93 78 67 57 38 36 59
82 82 80 79 81 81 81 82 81 79 75 71 67 64 59 52 41 32 28 27 27 27 26 25 23 22 22 23 25 28 35 52 71 82 80 75 71 61 53 62 71 65 59 61 63 61 57 57 61 67 76 85 88 88 87 85 83 82 80 77 75 74 78 84 87 89 94 98 99 96 98 100 97 96 94 93 96 95 94 87 74 64 48 34 50
82 79 77 76 78 81 81 81 79 77 74 72 70 66 60 49 36 31 30 29 30 28 26 25 24 25 24 26 27 28 36 47 54 60 62 58 57 53 50 55 57 52 46 43 42 41 42 42 44 50 59 71 81 87 90 89 88 86 83 81 78 76 76 77 81 85 90 95 98 98 98 97 98 99 96 95 96 94 95 95 83 70 57 38 39
83 80 80 79 78 80 79 76 74 73 72 71 69 61 51 41 33 32 31 30 30 28 26 26 25 25 24 27 31 35 41 38 31 42 54 50 45 43 43 42 37 32 28 25 25 27 30 32 34 38 47 57 67 76 84 89 91 91 90 86 83 80 78 75 75 77 83 89 93 95 96 97 97 96 97 97 92 90 94 95 87 77 69 52 38
92 91 91 88 83 79 76 70 66 66 65 63 56 47 39 35 33 31 29 29 29 27 26 25 23 23 22 25 32 38 41 32 26 40 46 36 31 30 28 25 17 12 11 10 12 13 15 17 19 23 31 40 49 57 67 77 85 90 92 92 90 86 83 78 73 72 78 85 87 90 94 95 94 93 97 100 94 93 99 96 85 75 69 61 46
98 98 95 89 83 78 73 67 63 63 60 51 41 36 35 34 32 30 28 28 27 26 25 23 20 19 18 21 29 35 35 32 32 33 23 13 15 15 12 9 4 4 6 6 6 6 7 8 9 13 17 23 28 35 44 53 64 75 82 87 91 92 91 88 81 75 77 86 89 89 93 95 94 93 95 99 99 98 99 97 89 74 61 55 50
91 90 88 85 81 75 68 62 60 60 53 42 36 36 36 34 31 29 29 28 26 25 22 20 19 16 16 21 26 29 28 28 30 24 12 6 5 4 3 3 2 4 5 4 4 4 6 8 9 11 14 16 17 19 23 28 36 46 55 65 74 82 88 90 90 86 82 88 94 95 96 97 98 98 96 97 100 100 98 99 96 85 68 59 56
90 89 88 85 79 69 61 54 52 52 47 41 39 38 34 31 30 29 28 25 21 18 14 13 12 11 15 20 20 21 22 23 22 15 9 5 2 2 2 2 4 5 5 5 4 5 8 12 14 15 17 18 18 18 17 18 20 23 28 36 44 53 63 72 81 87 88 89 94 97 99 100 99 99 100 99 98 98 99 100 99 93 83 77 72
93 90 86 79 68 58 50 44 44 47 46 42 37 33 31 30 29 27 24 19 12 9 7 6 6 6 9 11 10 12 15 14 11 6 4 5 4 4 3 3 7 10 10 9 8 10 14 17 19 20 21 21 22 22 22 21 21 21 21 22 25 28 34 42 51 64 76 85 90 95 98 100 100 99 99 100 99 97 98 99 99 97 94 91 84
91 87 79 66 54 47 42 41 43 44 41 36 32 30 30 28 26 22 16 10 6 4 4 3 2 3 3 4 4 5 6 4 3 3 4 6 5 5 6 5 7 12 17 19 19 21 23 23 22 21 23 25 27 27 28 28 27 26 27 26 25 24 23 24 28 34 45 60 76 88 94 96 97 98 98 98 100 99 98 98 99 99 98 95 91
87 82 71 56 47 43 41 41 40 37 34 31 30 29 28 25 20 15 9 5 4 3 3 2 2 3 2 3 3 3 4 4 5 6 6 8 7 6 5 5 6 10 15 18 22 26 27 27 26 26 28 29 31 32 32 34 35 34 34 33 33 33 30 26 23 22 23 30 45 63 79 88 90 93 95 95 98 99 98 98 99 100 100 96 95
85 77 62 50 45 42 39 37 34 33 32 30 30 27 24 19 13 8 6 4 3 3 2 3 3 2 3 4 5 6 8 9 12 13 13 13 11 8 6 5 5 8 10 12 15 21 26 29 31 32 34 35 34 36 36 37 39 41 41 41 41 41 40 38 33 28 24 21 23 32 48 66 78 85 89 90 93 96 98 99 98 98 100 99 97
82 69 54 46 42 39 35 33 32 31 31 28 26 22 16 12 9 7 5 3 2 3 3 3 3 4 6 8 9 10 12 15 18 17 16 14 11 8 8 7 6 7 10 12 13 18 23 28 34 33 34 37 36 36 39 39 40 43 45 45 46 46 45 45 43 40 36 29 25 22 24 35 52 68 79 83 85 89 94 98 98 98 100 100 99
75 60 50 43 38 36 34 33 32 30 28 24 20 15 10 9 9 7 3 2 4 4 4 4 5 7 9 11 12 13 16 19 19 16 15 13 11 10 8 6 5 7 11 14 14 18 22 23 30 34 32 34 36 36 37 39 40 41 44 45 46 48 49 48 48 47 46 42 37 31 25 22 26 40 58 70 76 80 86 94 99 100 99 99 100
65 53 46 39 36 35 33 32 30 27 23 19 14 10 9 9 7 4 2 4 6 4 5 6 7 10 13 15 15 16 19 18 16 15 15 16 18 19 17 12 9 6 8 14 15 19 25 23 23 30 33 33 34 36 36 38 41 40 42 44 45 47 50 51 52 52 51 50 47 43 37 30 22 22 33 49 62 71 77 85 94 100 100 98 99
55 48 41 36 36 34 32 30 26 23 18 15 13 10 10 9 4 2 4 6 6 5 6 8 10 13 15 16 16 16 18 17 15 16 19 23 26 27 27 26 25 19 12 13 14 16 23 26 23 24 31 37 36 36 37 39 43 44 43 45 47 48 50 53 54 55 55 54 53 51 47 42 34 25 21 28 42 56 66 74 84 95 101 99 99
48 43 38 35 35 32 29 27 22 19 16 14 13 11 10 7 3 3 4 6 6 6 9 11 13 15 15 15 15 14 16 17 18 22 26 30 32 33 35 36 39 43 38 29 23 20 19 23 28 24 23 33 38 36 37 40 45 49 49 49 50 50 51 54 56 57 56 56 55 55 53 49 45 37 28 22 25 37 50 62 73 88 100 100 99
44 40 37 34 33 29 26 23 18 16 16 15 12 10 8 5 3 4 5 7 7 8 12 14 14 15 13 13 13 14 18 20 23 28 32 35 37 38 41 42 42 50 57 48 33 28 25 20 24 28 23 27 35 35 35 39 45 51 53 53 54 54 54 54 55 57 59 59 58 58 57 55 51 46 40 30 23 23 32 47 62 78 94 100 100
43 38 36 33 30 26 23 19 15 15 15 13 10 7 5 4 4 5 7 10 8 9 13 13 14 14 12 12 14 17 21 24 27 32 35 37 39 40 41 45 45 45 52 53 38 28 32 29 22 26 28 26 33 36 33 36 45 51 54 55 55 56 57 56 55 56 59 61 61 61 60 59 56 52 47 41 33 24 21 29 46 65 85 98 100
43 38 35 31 27 23 19 15 14 15 12 9 6 5 4 4 5 6 10 12 10 10 12 12 13 13 11 13 16 19 23 26 29 33 35 36 37 38 39 40 44 44 43 48 43 26 27 36 32 29 32 30 33 40 38 37 45 51 54 57 59 59 59 58 57 58 61 62 63 64 64 62 60 56 53 49 44 36 26 21 28 46 69 91 100
43 39 34 28 24 18 14 12 13 13 9 6 5 6 6 6 7 9 12 12 10 10 11 11 12 12 13 14 16 20 23 26 29 31 33 34 33 34 36 36 39 43 41 42 43 30 21 29 33 32 36 37 38 45 47 45 47 51 52 56 62 65 64 62 60 60 63 65 65 65 66 66 64 61 58 55 50 46 39 28 22 28 47 75 96
42 38 30 24 20 15 12 11 12 10 6 5 6 8 8 7 9 12 14 12 10 10 10 10 13 13 14 15 17 20 23 25 28 29 29 30 31 30 31 33 33 37 42 42 43 39 28 24 28 31 34 38 42 49 55 55 56 58 57 55 59 63 63 62 63 63 64 66 66 66 67 67 67 66 64 61 57 53 49 41 32 25 29 51 80
40 34 26 21 16 13 12 12 11 9 6 7 9 10 10 9 10 12 13 12 10 10 10 12 14 14 14 15 17 20 22 23 25 27 28 28 29 28 27 29 31 32 37 40 43 44 37 28 29 35 38 41 44 51 57 59 61 64 62 57 57 59 60 61 65 68 67 66 66 66 67 66 66 67 66 66 64 60 56 50 43 34 27 31 54
39 29 22 20 15 13 14 12 10 9 7 8 10 11 12 12 12 11 11 10 9 10 11 12 13 13 14 15 17 19 20 22 22 23 26 25 25 26 24 25 28 29 31 35 39 43 42 36 32 36 46 48 47 53 59 59 60 64 63 61 61 61 60 62 68 71 73 73 70 67 65 64 64 65 64 64 64 63 61 57 50 44 35 28 33
36 23 18 17 14 13 14 12 10 9 10 10 11 12 14 14 12 11 10 10 10 11 11 11 11 12 13 14 16 18 18 19 20 21 22 23 22 23 23 23 24 25 27 30 35 38 40 40 35 34 44 50 49 53 59 61 62 64 64 62 65 68 65 63 68 73 77 77 72 67 64 64 65 65 64 64 64 63 62 60 56 51 43 36 30
29 17 15 14 13 15 14 13 12 11 12 14 14 14 15 14 12 10 10 10 10 10 9 10 11 11 13 15 15 17 18 17 19 19 20 21 21 20 20 20 21 23 25 27 33 37 37 38 37 35 40 49 52 54 59 64 67 70 71 63 61 70 72 66 69 77 83 83 80 75 72 69 66 66 65 64 65 65 63 60 57 55 50 44 37
20 13 12 11 14 17 15 14 14 13 14 16 16 16 15 13 12 10 10 10 9 9 8 9 11 12 14 16 17 17 18 17 17 18 19 20 20 19 18 19 21 22 25 28 31 36 37 36 36 38 42 49 55 57 58 61 64 70 80 80 73 76 80 73 72 82 89 90 88 84 81 76 71 70 69 65 64 66 67 64 58 55 53 48 44
14 12 11 10 14 18 18 16 16 15 16 16 16 15 13 12 11 9 9 9 8 8 9 10 12 14 15 17 18 17 18 18 17 16 16 16 16 16 16 18 21 23 26 29 33 36 38 38 39 40 42 47 54 57 55 58 65 71 81 93 94 92 90 81 74 82 91 91 90 88 85 82 78 76 75 70 66 66 68 70 66 58 54 52 48
11 12 14 14 14 17 20 19 17 18 18 17 16 15 12 11 10 8 8 9 9 9 10 10 11 13 15 16 16 17 17 18 17 16 16 15 14 14 15 18 22 24 26 30 35 38 38 40 42 41 41 47 55 60 59 62 74 79 82 92 99 98 97 89 77 81 93 97 96 91 85 85 87 84 79 74 72 71 68 71 75 70 60 54 52
10 11 14 18 20 21 21 20 20 21 19 17 17 16 14 11 9 9 8 8 9 9 9 11 11 12 13 13 14 15 15 14 14 14 14 14 13 14 18 23 27 28 29 31 37 40 39 40 43 43 43 48 56 65 67 64 69 76 83 93 100 98 98 97 86 84 93 99 99 94 86 87 96 96 90 86 86 84 77 71 75 78 70 59 53
10 11 14 20 25 27 24 20 21 21 18 17 17 16 14 13 11 10 9 8 8 9 9 9 10 10 11 11 11 12 11 11 12 12 12 12 12 13 17 24 29 31 32 34 38 40 40 40 42 43 45 50 56 65 68 64 64 72 82 92 100 100 99 100 97 92 95 99 101 98 89 88 98 100 98 98 98 96 91 81 76 78 76 66 56
8 11 16 22 28 30 26 22 22 20 17 17 17 16 14 13 12 10 8 8 8 8 8 8 9 9 9 9 10 10 9 9 10 10 11 10 10 11 13 17 21 25 30 35 39 41 41 41 40 40 44 48 55 61 66 66 67 73 81 88 96 99 99 101 100 99 98 99 101 99 91 90 99 101 99 100 101 99 98 94 87 80 76 71 61
8 12 19 25 29 31 28 24 22 20 18 17 16 16 14 13 12 10 8 8 8 7 8 8 9 9 8 9 9 8 8 8 8 8 9 9 9 9 10 11 13 16 19 26 33 37 40 41 39 38 41 45 51 58 63 67 70 76 83 88 91 95 98 98 98 100 100 99 100 99 92 92 98 100 100 100 100 100 100 100 97 89 78 72 64
8 12 19 25 31 34 31 27 24 21 19 17 15 15 14 12 11 10 9 8 7 7 8 8 8 8 7 8 8 7 7 7 7 8 8 8 9 8 8 8 9 11 13 16 22 28 35 40 39 37 38 40 45 52 58 63 69 77 86 91 91 91 91 91 93 98 100 100 100 99 95 94 96 97 100 101 99 100 100 99 101 98 86 75 66
9 12 17 25 32 37 36 32 27 24 21 17 14 13 12 12 11 10 9 8 7 8 8 7 7 7 7 7 7 7 7 7 7 8 7 8 8 8 9 9 8 9 11 12 16 22 29 36 38 37 36 36 38 45 54 61 64 70 77 83 86 87 88 87 87 91 97 99 100 101 98 97 98 99 100 101 100 100 101 99 100 101 97 84 69
13 16 21 28 34 37 40 38 31 26 22 16 13 12 12 12 12 10 9 9 8 8 8 7 7 6 6 7 7 7 7 7 7 8 8 8 9 9 9 10 10 11 11 11 12 16 22 30 34 35 35 34 33 37 48 59 63 62 61 63 73 85 93 92 88 88 95 98 97 99 101 99 100 100 100 100 100 99 100 101 99 99 101 95 78
13 18 25 33 37 37 38 36 31 27 22 15 12 12 13 12 12 11 10 9 9 8 7 6 6 6 6 7 7 7 7 8 8 8 8 9 10 11 12 13 13 14 14 13 12 11 13 19 24 29 31 31 29 30 38 52 61 63 58 59 71 87 96 98 96 93 95 97 95 96 99 100 100 98 97 99 100 98 99 101 100 99 101 101 92
12 19 29 36 41 40 35 33 34 31 22 16 14 14 15 13 12 12 11 10 9 7 7 7 6 6 7 7 7 8 8 8 8 8 9 10 11 14 15 15 16 17 17 16 15 14 13 12 14 18 23 27 29 27 29 40 54 62 64 67 75 85 94 100 100 97 94 95 96 98 98 98 100 97 93 94 96 98 100 100 100 100 99 101 100
14 23 33 38 41 42 39 38 39 32 20 14 15 17 16 13 13 13 11 10 8 7 7 7 6 6 7 7 7 8 8 8 8 9 9 11 13 16 18 19 19 19 17 15 15 14 14 13 11 12 16 23 28 29 28 32 42 54 64 70 74 82 92 99 100 98 97 97 97 97 97 97 98 98 96 94 93 95 99 100 100 100 100 100 101
Wind_Speed
9 9 8 8 8 8 7 5 4 2 1 1 2 3 4 4 4 4 5 6 6 7 8 9 10 11 12 12 13 13 14 15 16 17 17 18 18 18 18 17 17 16 15 15 14 15 16 20 22 21 20 20 20 20 18 17 16 16 18 18 17 15 15 14 14 13 13 13 14 12 11 10 11 13 13 14 15 15 13 12 12 11 10 10 9
8 8 7 7 7 6 6 5 4 2 1 1 3 4 4 5 5 6 6 7 8 9 9 10 10 11 12 13 13 14 14 15 15 16 17 17 18 18 18 17 17 17 16 16 15 15 16 20 21 21 21 19 19 19 17 16 15 16 17 18 18 17 16 15 14 13 13 13 13 13 12 10 10 12 14 14 16 16 14 14 14 12 11 11 10
6 6 5 5 4 4 5 4 4 2 1 2 3 4 5 6 7 7 8 9 9 10 11 11 12 12 13 13 13 14 14 15 16 16 16 17 17 17 17 16 16 16 16 15 15 16 17 19 19 19 19 17 16 16 16 16 15 16 17 17 17 18 17 16 15 14 13 13 14 14 13 11 10 12 14 15 16 17 16 15 15 15 12 12 11
4 3 3 2 3 3 3 3 2 1 1 3 4 5 6 7 8 9 9 9 10 11 12 12 13 14 14 15 14 14 14 14 15 16 16 17 17 17 16 16 16 15 14 14 13 15 16 16 16 16 16 16 14 14 15 15 16 16 16 16 16 16 17 17 16 16 15 13 14 15 15 14 12 11 13 16 16 17 17 16 17 17 14 13 12
2 2 3 2 1 1 1 1 1 1 2 4 5 6 7 8 9 10 10 10 11 12 13 14 15 15 14 14 14 13 13 13 14 15 15 15 15 15 15 15 15 14 12 11 11 12 13 13 14 14 15 15 14 14 14 14 14 15 15 15 15 15 16 16 17 18 17 15 15 16 16 16 14 12 12 15 17 17 17 17 18 19 16 14 13
3 3 4 3 2 1 1 0 1 2 3 4 6 7 8 9 10 11 11 11 13 14 14 14 13 13 12 12 12 12 12 12 12 12 13 13 13 13 13 13 13 12 11 11 10 10 11 11 12 12 13 14 15 14 13 13 13 13 13 14 15 16 15 15 17 18 19 18 17 18 17 16 15 13 12 13 16 17 18 17 19 20 18 15 14
4 4 4 4 3 2 2 2 1 2 3 5 7 8 10 11 11 11 12 13 14 14 13 13 12 12 12 12 12 11 11 11 11 11 11 11 11 10 10 10 11 11 11 11 10 10 10 10 10 10 11 12 13 13 13 13 13 13 13 13 14 15 15 15 16 18 20 21 21 20 19 17 16 15 14 13 14 17 18 18 19 21 21 17 15
5 5 5 5 4 3 3 2 2 2 3 5 8 9 11 12 12 12 13 14 14 13 12 12 12 12 12 12 12 12 11 11 11 11 10 9 9 8 8 10 11 11 11 11 10 9 10 10 10 10 10 11 12 12 12 12 13 13 13 13 13 14 15 16 16 17 20 22 23 23 20 18 18 18 17 16 14 15 17 18 19 21 23 20 17
5 5 6 6 5 4 4 3 3 4 4 6 7 10 11 12 12 13 14 14 14 13 12 12 11 11 11 12 12 12 12 12 11 10 8 8 7 8 9 11 11 10 10 10 10 10 10 10 10 10 10 11 11 12 12 12 13 13 13 13 13 12 14 15 15 16 19 21 23 24 22 20 20 19 19 18 16 16 17 18 19 21 24 23 19
6 6 5 5 5 5 4 4 5 5 6 6 7 9 10 11 12 13 14 15 15 14 13 11 11 11 11 12 12 11 12 11 11 9 8 8 7 9 11 11 11 11 11 11 11 11 12 12 12 12 12 12 12 12 12 11 12 13 12 12 12 12 13 14 15 16 18 20 22 24 24 23 22 22 21 19 17 17 17 18 20 22 25 25 21
7 6 5 4 4 5 5 6 6 7 7 7 8 8 9 10 12 14 15 15 14 14 14 13 13 12 11 12 12 11 11 11 10 9 8 8 8 9 10 10 10 11 12 12 12 13 14 14 14 14 14 14 13 12 12 12 12 13 12 11 11 11 11 11 13 15 17 18 20 23 24 24 24 23 23 22 19 19 18 18 19 22 26 27 24
7 7 5 4 5 5 6 7 8 8 8 8 8 9 9 11 12 14 14 14 14 14 15 15 14 12 10 11 12 11 10 10 10 10 9 9 9 10 11 10 10 11 12 12 13 14 15 16 16 16 16 15 15 14 14 13 13 13 14 14 12 12 11 10 11 13 15 16 18 20 23 24 24 24 24 24 23 21 19 18 19 21 25 28 27
8 6 5 5 5 6 6 7 8 9 9 9 9 9 10 11 12 13 12 12 13 14 15 15 16 14 11 10 12 11 10 10 10 10 10 11 11 13 14 13 11 12 14 14 15 16 17 18 18 18 17 17 16 15 15 15 15 15 15 16 16 15 13 12 11 12 13 14 17 18 20 24 26 26 26 26 27 23 18 17 19 19 23 28 29
7 6 5 5 6 7 7 8 9 10 10 10 10 10 11 12 12 12 12 13 14 15 15 16 16 16 15 13 11 10 10 10 9 10 13 14 15 16 16 15 14 15 18 18 18 19 20 20 20 20 19 18 17 16 16 16 16 16 16 17 18 18 16 15 13 13 13 12 14 16 18 22 25 27 28 28 28 25 18 17 18 19 21 26 30
5 6 5 6 6 7 8 8 10 11 11 11 11 11 12 11 11 11 12 14 15 16 16 16 16 16 16 15 13 11 7 6 7 10 14 16 17 16 15 15 16 18 20 21 21 20 20 20 21 21 19 18 18 17 17 16 16 17 17 18 19 20 19 19 17 16 16 14 13 14 16 18 21 25 26 27 28 26 22 17 17 18 19 23 30
5 5 5 5 6 7 8 9 11 12 13 13 12 12 11 10 10 11 13 13 14 15 16 16 16 16 15 14 13 11 5 6 11 10 9 12 13 14 15 16 18 20 20 20 20 20 19 19 20 20 19 19 18 18 18 18 17 17 18 19 20 20 21 21 20 20 20 18 16 16 15 15 17 22 25 27 29 29 27 20 16 18 17 19 27
4 5 5 6 7 9 10 11 12 12 13 12 11 10 9 9 10 12 12 12 12 14 15 15 15 15 14 12 9 7 8 15 17 10 8 12 15 16 17 18 19 18 18 17 17 18 18 17 18 19 18 18 19 19 19 19 19 19 19 19 20 20 21 21 22 22 23 21 20 18 17 17 18 20 23 27 29 30 30 24 19 21 20 19 23
6 6 7 7 9 11 11 11 12 13 12 11 9 9 9 10 11 11 11 11 12 12 13 13 14 13 12 11 9 8 12 17 16 13 13 14 15 17 18 18 19 18 17 17 17 17 17 17 17 18 18 18 19 19 19 19 20 20 20 20 21 21 21 21 22 23 24 23 21 20 19 18 18 20 21 23 27 30 31 27 23 24 25 24 22
8 7 8 9 12 12 11 11 11 11 10 9 8 9 9 10 10 10 11 11 11 11 11 11 12 12 12 12 11 11 13 15 15 18 19 17 15 15 16 18 19 19 19 20 20 20 19 17 17 18 19 19 19 19 20 20 20 20 20 21 21 22 22 22 21 22 24 24 22 20 20 19 19 21 21 20 23 28 31 29 25 25 25 25 24
8 8 10 12 12 11 9 9 10 10 9 8 8 9 9 9 9 10 11 11 10 10 10 10 10 11 11 11 11 12 12 13 13 15 18 20 20 18 18 19 17 17 19 19 20 20 20 19 20 21 21 22 21 21 20 20 21 21 21 21 22 22 23 23 23 23 23 24 23 22 22 21 20 22 22 20 20 23 28 30 28 27 25 24 25
9 10 11 12 10 8 7 8 8 8 7 8 8 8 8 9 9 10 10 10 10 10 10 11 11 11 11 11 11 11 11 10 11 13 17 20 23 25 26 25 21 19 17 15 16 16 17 20 21 22 22 23 23 23 23 22 22 22 21 21 22 23 23 24 25 24 24 25 25 25 24 22 21 22 23 22 20 20 24 30 31 29 27 25 25
10 11 11 9 7 6 6 6 6 6 6 6 7 7 8 8 9 9 10 10 11 12 12 12 12 12 11 11 12 12 12 13 14 17 19 20 23 27 29 29 29 27 23 21 19 17 19 20 20 21 23 24 25 25 25 24 24 23 23 22 22 23 24 24 25 26 25 25 26 27 27 26 24 23 23 23 22 20 21 27 32 31 30 28 27
11 11 9 6 5 5 5 5 5 5 5 6 6 7 7 7 8 9 10 10 12 13 13 13 13 12 13 14 15 16 16 17 19 20 21 22 24 25 26 27 29 28 27 27 26 25 27 26 25 26 26 27 28 28 27 27 26 26 25 24 23 23 23 24 24 25 26 26 26 27 28 29 27 25 24 24 24 23 22 25 31 34 33 31 29
11 10 6 4 4 4 4 4 4 5 5 6 6 6 6 7 8 9 10 11 12 13 12 13 13 14 16 17 18 18 18 19 20 21 21 22 23 24 26 27 27 27 26 27 27 28 31 31 30 30 31 30 29 29 29 29 28 28 27 27 26 25 24 24 24 24 26 26 26 27 28 30 30 29 27 26 25 26 27 26 28 33 35 34 32
11 7 4 3 4 4 3 4 4 5 5 5 5 5 6 7 8 9 10 11 12 12 12 14 15 16 18 18 18 18 20 21 20 20 21 22 22 24 26 26 27 27 26 27 28 29 32 33 33 34 34 34 32 30 30 29 29 29 29 28 27 27 26 25 24 23 24 25 26 26 27 29 31 31 31 29 27 26 28 28 27 30 36 38 36
8 5 4 4 4 3 3 3 3 4 4 4 4 4 5 7 9 9 10 12 13 13 14 15 16 17 18 18 18 19 21 21 20 21 22 24 26 27 28 27 27 28 27 28 29 32 34 34 35 38 38 37 36 34 32 31 30 29 28 28 27 26 27 26 25 24 22 23 24 25 26 27 29 31 32 32 29 27 27 29 28 29 33 39 41
5 4 6 5 4 3 2 2 3 3 3 3 3 4 6 8 9 9 11 13 13 13 15 15 16 17 18 18 18 19 21 21 22 24 25 27 29 30 31 31 31 29 29 30 31 34 37 36 35 39 41 40 39 38 37 36 34 32 30 29 28 26 25 25 25 25 24 22 22 24 25 25 27 30 32 33 33 30 28 29 30 30 30 34 41
3 6 6 5 3 2 2 2 2 2 2 3 3 5 7 8 9 10 12 13 12 13 15 16 17 18 17 18 18 20 22 23 24 26 28 29 30 31 32 33 34 33 33 35 34 35 39 40 38 40 43 44 42 40 39 39 38 37 35 33 31 28 26 25 24 25 25 23 22 22 23 24 25 27 30 32 34 33 32 31 31 32 31 32 37
4 7 6 5 3 2 2 2 2 2 2 2 4 6 7 9 9 10 12 13 12 14 15 16 17 17 17 18 20 22 24 25 26 28 29 30 30 31 32 33 34 34 33 35 37 36 39 42 43 42 43 44 45 43 42 41 41 40 38 36 34 31 28 26 25 24 24 24 23 22 22 23 25 26 28 30 33 34 34 33 33 32 32 33 34
6 7 6 4 3 3 2 2 1 1 1 3 5 7 8 9 9 10 13 12 11 14 16 16 17 16 17 19 21 23 25 26 27 28 29 30 30 31 32 32 33 32 31 32 34 37 39 41 43 44 44 44 45 45 44 44 44 43 41 38 36 34 32 29 27 25 23 22 23 23 22 22 24 26 27 29 31 34 35 35 34 33 33 33 35
7 7 5 4 3 3 2 1 1 0 2 4 6 7 8 9 9 11 13 11 11 14 15 16 16 16 17 20 22 24 25 26 27 28 28 29 30 30 30 31 31 31 31 31 33 36 39 41 43 44 45 44 45 46 45 45 45 45 43 41 39 37 35 33 30 27 24 23 22 22 22 22 23 25 27 28 30 32 35 36 35 35 34 33 34
7 6 5 4 3 2 2 1 1 1 3 5 7 8 9 9 11 12 12 11 12 14 15 15 16 17 18 20 23 25 25 26 27 27 28 28 29 29 29 30 30 30 31 32 35 37 39 40 43 44 45 45 46 47 48 48 47 46 45 44 43 40 39 36 33 29 27 25 22 21 22 22 23 23 25 27 29 31 33 36 37 36 35 34 34
8 6 5 5 4 3 2 2 1 3 4 6 9 9 9 9 11 12 12 11 12 14 14 15 17 18 19 21 23 24 25 25 26 26 27 28 28 28 29 29 30 31 32 32 35 39 40 41 42 44 45 46 47 48 50 51 50 48 47 47 46 44 42 40 36 32 29 27 24 21 20 20 21 22 23 25 28 30 31 34 36 37 36 35 35
8 6 6 5 4 3 2 2 2 4 6 8 10 9 9 9 11 13 12 11 12 13 14 16 18 19 20 22 23 24 24 24 25 26 26 27 28 28 29 30 30 30 31 32 34 38 42 43 44 45 46 47 48 49 50 51 51 50 49 49 48 47 45 43 40 36 33 29 26 22 20 19 18 19 20 22 25 28 30 32 35 37 37 36 35
9 7 7 6 5 4 3 3 4 5 7 10 11 10 9 10 11 12 12 11 12 13 15 17 19 19 20 22 23 23 23 24 25 26 26 27 28 28 29 30 30 31 31 32 34 36 40 43 45 46 48 48 49 50 50 51 50 50 50 50 50 49 47 46 44 41 37 32 28 24 22 20 18 17 17 19 21 25 29 31 34 36 38 37 36
9 8 7 6 5 4 3 3 5 7 9 11 12 11 11 11 11 11 11 11 12 14 16 17 18 19 20 22 23 23 23 24 24 25 26 26 27 28 29 29 30 31 31 32 33 35 38 42 44 45 47 48 49 50 51 52 51 50 51 51 51 52 51 48 45 43 39 35 31 27 25 23 21 20 18 17 19 22 26 29 32 35 37 38 38
9 8 8 6 5 4 4 4 6 9 11 12 12 12 12 11 10 10 10 11 13 15 16 17 18 19 20 21 22 23 23 24 24 25 26 26 27 27 28 29 30 30 31 32 33 34 37 41 44 46 46 47 49 50 51 53 53 52 52 52 51 53 55 52 47 43 40 37 35 33 29 28 27 25 22 19 18 20 24 27 31 34 36 38 38
9 9 8 7 6 5 5 5 7 10 12 13 12 12 12 11 10 10 10 12 13 14 15 17 18 19 20 21 22 23 23 24 24 25 25 25 26 27 28 29 30 30 32 33 34 35 37 40 43 46 47 48 50 51 51 52 52 53 54 55 53 53 55 55 50 45 41 39 38 37 35 32 30 28 26 22 19 18 21 25 29 32 35 37 38
9 9 9 8 7 7 6 7 9 11 13 14 13 12 11 10 9 10 11 12 13 14 15 17 18 19 20 20 21 22 23 24 24 24 25 25 25 27 27 28 29 30 32 33 34 36 38 40 42 45 47 47 48 50 51 52 52 53 53 54 56 54 54 55 51 46 43 39 38 39 38 37 35 33 30 27 22 19 19 22 27 31 33 36 38
10 10 9 9 9 9 8 9 11 13 13 13 13 11 10 10 9 10 11 12 13 15 16 17 18 18 19 19 20 21 22 22 22 23 24 25 25 26 26 27 28 30 32 33 34 36 38 40 42 44 46 47 48 50 52 54 54 54 52 50 51 50 50 53 51 47 44 42 41 41 41 42 41 38 35 32 27 23 20 20 23 28 31 34 37
12 11 11 10 10 10 11 12 13 13 13 13 12 10 9 9 10 10 12 12 13 15 16 16 17 17 18 18 19 19 19 19 19 21 22 23 25 25 26 27 28 30 31 32 33 35 37 39 41 43 46 46 48 50 52 53 52 52 52 49 47 47 48 51 52 48 45 44 42 44 46 46 43 39 35 32 28 24 22 20 20 24 29 32 35
13 13 13 12 11 11 12 14 14 14 13 13 12 11 9 9 10 10 11 12 13 14 15 15 16 17 17 18 18 18 17 18 18 19 21 22 23 24 24 25 26 29 30 31 32 33 35 38 39 42 44 45 46 47 48 49 49 50 51 49 47 47 48 53 54 50 48 45 41 43 49 47 41 38 34 31 27 23 20 18 18 21 26 31 34
14 14 14 14 13 13 13 14 15 14 14 12 12 11 10 10 10 10 11 12 13 13 13 14 15 16 17 17 17 17 17 18 18 19 20 21 22 23 23 23 24 26 28 30 31 31 33 36 38 39 42 43 43 44 45 47 49 50 50 48 46 45 46 52 53 50 50 46 39 43 49 44 36 36 34 29 25 22 18 15 16 20 23 29 34
15 16 16 15 15 15 15 16 15 14 13 12 12 11 10 10 10 10 10 11 11 12 13 14 15 16 16 17 17 17 17 18 18 19 20 21 22 23 23 23 24 25 26 27 28 29 31 34 36 38 39 41 41 42 43 45 47 48 49 48 46 44 44 47 47 46 48 45 39 45 48 40 34 34 30 24 21 20 17 14 13 17 22 26 32
16 17 17 16 16 17 17 17 16 15 13 12 12 11 10 10 9 9 10 10 10 11 12 13 14 15 16 16 16 16 17 17 18 19 20 21 22 23 23 24 25 25 26 26 26 26 28 31 34 36 37 39 39 40 40 42 45 47 47 47 47 45 46 47 46 45 46 44 43 48 47 38 33 31 25 22 20 19 18 16 13 14 19 24 30
17 17 18 18 17 18 18 18 17 15 13 12 12 11 10 10 9 9 9 9 10 10 11 12 13 14 15 16 15 16 16 17 17 18 19 20 21 22 22 24 25 26 27 27 27 26 26 27 31 34 35 37 37 37 38 39 41 44 44 45 46 46 48 49 48 46 45 45 48 50 47 40 35 29 23 23 25 21 17 16 14 15 17 21 27
17 17 18 18 18 19 19 19 18 16 14 13 12 11 11 10 9 9 8 8 9 9 10 11 13 14 14 15 14 15 15 16 17 18 19 20 20 21 21 23 25 26 27 28 28 28 26 25 27 30 33 35 36 36 37 38 39 41 41 42 43 45 47 50 49 46 45 48 51 51 48 44 40 31 20 22 28 25 17 13 11 12 15 17 23
17 17 18 18 19 19 19 19 18 17 15 13 12 12 11 10 9 8 7 7 8 9 9 10 12 13 13 13 13 13 14 15 16 17 18 19 19 20 21 22 23 24 25 27 27 27 26 25 25 27 30 33 36 36 36 36 38 40 41 43 43 45 47 50 51 49 47 50 52 52 50 46 42 33 20 18 25 27 21 16 10 7 9 13 18
18 18 19 19 19 19 19 19 18 17 15 14 13 12 11 9 8 7 6 6 7 7 8 10 11 11 11 11 12 12 13 14 15 17 17 18 19 19 21 22 22 23 25 25 26 27 27 26 25 26 29 31 35 36 37 37 37 40 43 45 46 46 46 46 49 50 48 50 52 52 51 48 41 34 24 18 21 28 29 25 18 11 4 6 12
18 19 19 19 19 19 20 19 17 16 15 15 14 12 10 9 8 6 5 5 6 6 7 9 9 9 10 10 11 11 12 14 15 16 17 17 18 20 21 22 23 24 25 26 26 27 27 27 27 28 29 32 34 37 38 38 38 39 42 43 44 45 45 42 44 48 48 50 52 51 51 50 43 35 29 23 22 28 34 32 27 22 13 3 4
18 19 19 20 21 21 20 18 16 15 15 15 14 12 10 9 7 6 5 4 4 5 7 7 7 8 8 9 10 11 12 13 14 15 16 17 18 20 21 22 23 24 25 26 27 28 29 29 30 30 31 33 34 36 38 39 39 38 39 40 41 43 44 42 43 46 48 49 51 50 49 50 46 40 35 31 28 30 36 37 36 32 24 13 6
Wind_Direction
166 162 155 153 152 148 147 143 139 132 100 0 345 329 314 306 300 299 300 301 303 304 306 306 306 304 304 305 305 305 303 302 302 302 303 303 303 303 301 301 302 304 306 306 307 307 307 304 303 308 308 307 311 309 307 305 301 297 292 289 289 297 309 312 315 319 321 324 322 311 304 294 272 259 260 259 256 253 241 223 212 214 224 225 225
165 163 162 163 159 157 158 156 157 157 130 346 332 320 313 314 312 311 311 313 315 314 314 312 309 307 306 306 306 307 306 304 303 303 302 302 302 301 300 300 302 304 306 306 306 306 304 302 305 314 314 310 312 312 310 306 301 298 294 288 283 283 294 302 304 310 315 317 319 312 305 303 287 266 259 257 254 255 250 230 213 212 222 228 225
168 170 175 171 166 165 162 162 166 158 100 339 328 320 316 317 316 317 317 315 315 312 310 308 307 308 307 306 305 305 304 302 302 301 300 299 298 298 300 302 303 305 307 307 306 303 300 303 309 316 319 318 321 322 315 308 301 296 294 291 286 279 281 291 294 299 306 310 314 313 307 304 299 280 264 259 254 252 250 236 218 211 218 228 228
180 194 204 191 176 171 163 156 149 115 9 337 328 322 318 317 316 316 314 312 311 308 306 305 307 309 308 307 305 302 299 297 296 296 296 296 297 298 301 302 303 304 305 306 306 303 301 307 314 318 322 323 327 331 324 314 303 295 294 292 291 284 276 279 284 292 297 302 309 310 306 302 301 293 273 260 256 252 248 239 223 213 214 224 228
209 240 259 255 214 180 155 126 56 348 332 327 321 318 317 316 315 313 313 314 312 309 306 307 308 310 310 309 307 303 300 297 295 294 293 294 295 297 299 301 301 300 300 301 302 304 306 313 319 322 325 323 324 329 328 323 313 303 298 292 290 288 282 276 275 281 287 293 301 303 301 297 294 296 283 265 257 253 249 241 227 217 213 218 225
237 254 262 266 254 210 180 180 315 316 316 318 317 319 320 319 316 316 318 318 315 311 309 310 313 317 318 314 312 311 308 305 301 299 298 297 295 296 299 301 302 302 301 299 300 304 308 313 318 322 322 319 320 324 326 326 323 315 306 300 293 288 287 281 273 273 277 282 288 293 295 293 291 294 292 276 262 255 251 244 233 222 214 213 222
240 247 250 250 243 227 219 229 269 302 311 319 322 324 324 322 321 320 319 316 313 313 315 319 324 327 326 321 319 320 315 310 307 307 307 303 299 298 300 303 304 304 304 305 307 309 311 311 313 314 313 312 314 320 323 323 323 320 314 311 304 295 291 286 278 274 273 275 278 282 286 289 291 294 298 292 273 261 255 247 236 228 219 211 218
232 238 240 237 234 237 242 246 273 298 312 320 322 323 324 324 323 321 317 314 315 319 325 329 331 333 330 324 324 324 319 316 315 316 315 308 303 299 302 308 308 306 305 307 311 313 313 312 312 310 309 309 311 315 318 318 320 320 317 313 312 307 298 292 286 278 273 274 275 274 276 282 286 288 295 299 290 272 259 250 240 230 224 215 213
226 232 236 239 243 249 258 270 287 298 304 306 312 321 324 324 322 319 316 317 321 326 331 333 334 338 334 326 325 324 321 321 321 323 320 311 303 298 307 313 312 311 309 308 307 308 307 306 307 307 308 309 311 313 313 313 314 316 318 314 312 311 304 302 295 283 276 275 274 273 274 276 278 282 288 296 298 286 266 252 242 230 226 219 213
223 224 233 248 256 262 269 281 289 289 288 293 307 318 320 319 319 317 317 320 324 325 328 333 335 339 336 327 325 323 320 320 320 320 316 309 304 306 313 314 313 316 316 312 308 306 304 300 299 301 305 307 307 309 308 306 305 308 315 314 312 310 309 310 302 292 287 281 279 278 275 273 275 279 283 288 296 295 279 259 244 231 225 221 215
222 220 230 254 265 274 280 283 285 284 289 298 308 313 314 316 316 316 317 319 322 321 323 327 329 333 332 324 320 317 314 311 308 308 307 306 307 311 314 312 313 318 317 315 312 309 306 303 300 300 304 307 305 302 298 296 294 295 298 302 304 303 304 306 301 298 296 288 283 279 274 272 273 275 277 280 286 292 286 269 252 236 225 220 215
223 224 236 260 272 280 282 281 282 287 296 303 307 311 313 314 314 314 316 317 317 316 318 319 320 324 326 319 314 310 307 301 296 297 298 300 306 310 312 310 313 317 317 316 315 313 311 307 305 303 304 305 305 303 299 292 288 286 285 287 289 289 290 293 296 298 297 292 286 278 273 270 267 267 270 274 277 282 283 273 260 243 229 221 217
226 232 243 259 271 277 279 282 286 291 298 303 307 310 312 313 315 317 318 319 316 313 315 316 319 322 322 318 314 312 307 292 286 289 292 294 298 304 308 306 307 315 318 315 312 312 310 307 305 305 305 305 304 303 300 294 289 285 282 281 282 283 283 284 288 290 293 296 291 283 278 272 267 264 265 269 270 270 275 273 264 253 236 224 218
233 242 246 252 264 272 275 282 288 293 299 302 306 309 312 315 318 322 323 320 317 316 318 321 325 326 326 327 321 315 305 284 276 283 288 291 293 299 304 301 302 313 318 314 310 308 307 304 301 300 302 303 303 302 300 297 292 287 282 279 280 282 283 284 287 284 284 293 296 291 282 275 271 265 262 266 266 262 266 273 267 261 247 230 221
245 253 254 259 268 276 281 287 292 297 300 301 303 306 310 315 319 322 320 318 318 319 323 327 331 331 331 331 327 326 314 265 271 285 285 289 295 304 310 310 311 316 318 316 312 310 308 307 303 300 300 300 301 301 300 300 296 291 285 281 280 281 283 286 288 285 279 280 290 292 286 279 275 270 264 260 261 260 260 265 267 265 258 239 225
247 254 265 274 283 294 297 298 299 299 300 301 303 305 308 312 314 317 318 320 322 324 329 332 334 336 338 337 331 333 333 306 316 315 300 302 308 314 321 322 321 320 319 318 317 315 314 313 309 306 304 303 301 300 298 297 295 293 289 285 283 282 283 285 287 286 281 276 278 282 284 281 275 273 268 260 258 260 257 256 260 264 266 252 233
240 249 267 280 294 302 302 303 303 302 303 303 304 304 306 308 312 318 322 325 329 332 333 333 337 342 345 346 340 329 324 328 334 340 331 327 328 330 334 335 333 330 328 326 324 321 321 322 318 314 312 309 305 302 299 297 295 292 291 289 288 286 285 285 286 287 286 281 277 275 274 274 272 271 269 264 261 259 257 253 250 254 259 258 244
238 251 268 284 296 301 302 304 304 303 304 303 303 303 305 311 317 324 329 333 338 338 336 338 344 349 351 356 357 341 333 337 339 338 339 345 347 344 346 349 346 344 343 338 336 334 334 333 326 322 321 318 313 310 306 303 301 298 295 294 292 290 288 287 287 287 289 289 285 278 270 268 271 274 272 267 262 258 256 252 245 246 248 250 249
248 263 277 291 296 299 300 300 299 297 298 299 302 306 311 318 324 332 339 341 343 342 343 350 353 355 1 3 0 352 346 347 344 340 341 350 359 357 357 359 354 350 349 345 344 344 345 343 334 330 330 327 322 318 315 312 309 305 302 298 294 291 289 287 285 284 286 289 289 284 278 272 268 268 270 271 264 255 252 251 248 246 245 246 250
264 278 289 296 296 297 298 296 294 291 292 298 303 310 316 324 332 338 342 342 344 351 358 5 7 7 8 5 -0 359 357 354 350 347 343 344 355 1 3 10 11 -0 353 349 347 348 348 348 344 340 338 335 333 329 326 322 317 312 308 304 300 296 292 288 284 280 279 282 285 284 281 279 272 265 262 266 268 258 250 249 249 247 244 245 249
276 289 297 298 294 294 294 291 290 288 292 299 306 315 322 329 336 339 342 345 354 4 11 17 21 21 18 12 9 11 11 7 1 1 -0 355 356 359 359 6 17 17 14 7 360 357 355 351 348 345 343 342 341 340 337 333 328 323 318 313 308 303 299 293 288 282 277 275 278 279 278 276 274 270 262 259 265 262 251 247 249 250 245 244 246
285 295 296 292 286 281 282 285 288 290 296 302 310 319 325 333 337 340 348 356 7 15 18 23 28 29 28 26 27 28 25 22 17 14 14 7 1 1 0 3 9 15 20 23 23 20 12 5 359 355 354 353 351 349 347 342 338 333 328 324 318 311 305 300 294 289 282 275 272 273 274 273 272 271 267 260 259 260 255 248 245 248 249 246 244
291 294 287 278 270 266 273 283 288 292 298 306 315 322 329 337 341 350 1 9 19 24 24 28 31 32 34 34 34 34 30 27 25 21 18 12 7 5 3 4 9 12 13 16 20 20 16 13 11 7 4 1 358 355 352 350 346 341 336 332 328 322 315 308 302 295 289 282 275 270 269 270 270 269 268 263 260 258 256 250 240 239 245 246 242
295 292 280 260 252 256 270 280 287 294 302 311 319 326 335 342 353 7 17 25 31 31 30 33 35 35 36 37 37 36 34 33 30 25 22 17 12 11 9 7 10 13 12 11 13 15 16 15 14 12 10 6 4 360 356 353 350 346 342 338 334 329 324 317 311 303 297 291 284 276 270 268 268 268 268 265 262 258 253 253 245 236 238 242 242
295 286 258 230 230 243 263 275 287 296 303 315 322 331 344 358 14 25 31 38 40 37 36 39 39 39 39 39 39 37 37 36 33 29 26 22 18 18 17 14 14 16 15 12 12 12 15 16 14 12 11 9 7 5 1 357 354 351 346 343 338 333 329 323 318 312 305 299 292 285 276 270 267 266 266 265 263 260 254 252 250 240 234 234 237
291 263 222 209 216 226 249 272 288 297 305 319 325 343 6 19 30 36 42 46 45 41 43 44 43 43 43 42 40 40 40 39 36 33 31 29 26 24 20 17 19 21 19 16 15 13 13 14 14 12 10 9 8 6 4 1 357 354 350 346 342 337 331 327 323 318 313 305 299 293 285 276 269 266 264 263 262 261 257 254 252 247 238 232 234
282 230 205 197 203 210 237 269 283 290 304 321 337 13 29 34 40 45 50 52 49 48 48 48 47 48 47 45 44 45 45 43 40 38 36 34 33 30 25 21 19 20 22 20 17 16 14 13 14 13 9 8 9 7 4 2 358 356 353 349 346 343 337 331 326 322 318 312 303 297 291 284 275 268 264 263 262 259 257 255 252 251 247 238 235
253 211 199 187 184 193 232 255 266 283 307 331 6 35 40 45 51 54 57 56 53 53 52 52 52 52 51 50 49 49 49 45 42 41 40 38 37 34 32 29 24 20 21 20 16 15 14 12 12 13 10 7 7 8 5 2 360 356 354 351 348 347 344 338 332 325 318 314 308 299 292 288 281 274 267 263 262 260 256 254 253 251 250 245 239
221 204 192 178 170 178 224 243 254 284 319 358 35 47 49 57 63 62 60 58 55 57 58 56 57 55 54 53 51 50 49 46 44 43 42 40 38 35 33 32 29 23 18 16 15 13 13 13 10 8 10 8 5 6 6 3 1 358 355 353 350 348 348 345 340 332 322 315 310 303 293 287 282 277 272 266 262 261 258 255 253 251 249 248 246
212 200 184 171 176 188 219 242 255 283 357 33 47 54 62 70 71 66 64 61 58 62 62 60 59 57 55 54 52 51 50 47 47 45 43 40 37 35 32 30 28 25 18 11 12 13 10 12 11 7 7 8 5 4 5 3 1 359 356 354 352 350 349 348 345 339 330 320 312 306 298 289 282 277 274 270 264 262 260 257 253 250 248 246 246
209 197 182 178 188 198 211 235 248 307 38 51 62 70 78 79 72 70 70 67 63 66 67 63 62 58 55 55 54 53 51 48 47 45 42 40 37 34 32 28 25 23 19 9 6 11 10 7 9 9 6 7 5 3 3 3 1 359 358 356 354 353 352 350 348 344 337 328 318 310 304 294 285 277 272 271 267 263 261 259 256 251 248 244 242
207 194 187 186 194 201 204 226 225 72 61 74 83 84 85 82 77 77 78 75 69 69 69 66 64 60 57 57 56 54 52 49 47 44 41 38 36 33 30 28 23 18 17 11 2 6 11 6 4 7 6 6 6 3 1 2 1 359 359 357 356 355 355 353 351 350 343 335 325 316 309 300 290 281 273 269 267 264 261 260 258 255 250 245 240
203 193 190 187 192 199 202 205 162 89 85 94 93 92 90 88 87 85 83 80 73 71 71 68 66 61 58 58 57 54 51 48 46 43 40 36 33 31 27 25 23 16 13 11 2 1 9 9 4 5 6 5 5 4 1 1 0 359 359 358 356 356 356 355 353 351 348 340 331 322 314 307 298 288 277 270 266 263 261 259 258 257 253 247 242
199 190 192 191 191 194 194 182 130 101 104 104 100 100 99 96 95 92 88 81 75 74 73 69 66 62 59 58 57 54 50 46 44 41 37 34 30 28 26 22 20 17 11 8 4 359 2 6 6 5 6 5 4 4 1 359 359 358 358 357 356 356 356 356 354 351 348 342 335 326 319 314 308 298 285 274 266 263 260 258 257 256 254 249 243
200 190 189 190 189 188 181 155 119 112 116 113 111 111 107 101 97 95 91 84 78 76 73 70 67 64 60 58 56 53 49 44 42 39 34 32 28 25 24 21 17 16 12 7 4 360 358 2 5 4 4 5 4 3 1 359 359 358 358 358 359 359 359 358 355 352 349 345 338 331 325 321 317 310 297 281 269 263 259 257 255 255 255 252 245
199 189 184 185 184 180 169 145 125 125 125 123 122 119 112 106 100 97 93 88 82 78 74 71 69 64 61 58 55 51 48 43 40 37 32 28 26 23 20 19 17 14 12 8 5 2 359 359 2 4 4 3 4 4 1 359 360 360 358 359 1 2 2 0 357 354 352 348 343 337 332 329 324 318 309 294 278 267 261 257 255 253 253 253 249
196 186 182 182 179 173 164 148 137 134 131 130 128 123 117 112 105 100 97 91 84 80 76 72 69 64 59 56 53 49 45 42 38 35 31 26 23 22 18 17 16 14 12 9 6 4 2 360 1 4 4 3 3 4 2 360 359 359 357 356 359 2 2 1 358 356 353 350 347 344 340 334 329 322 317 307 291 276 265 259 256 253 251 252 251
191 184 182 180 176 174 167 153 147 142 138 135 131 126 121 117 111 105 98 92 85 80 77 72 67 63 58 53 50 46 41 39 36 32 29 25 21 19 18 17 15 13 12 9 7 5 4 2 1 2 4 4 3 3 3 1 360 358 355 353 357 1 1 0 359 357 355 351 348 345 341 337 332 327 322 314 302 287 271 260 256 253 251 250 250
187 184 182 180 176 176 171 159 153 147 142 139 135 130 126 120 115 106 97 91 85 80 76 71 66 61 57 51 47 44 40 35 32 29 27 24 21 18 17 16 14 13 11 9 7 5 4 4 3 3 4 4 3 2 2 2 2 1 357 353 354 358 359 359 360 358 356 352 346 343 342 340 338 332 326 319 311 299 281 263 253 251 251 250 249
182 183 184 182 178 175 171 161 154 149 146 143 139 135 131 124 116 105 97 90 85 80 75 71 67 62 57 52 47 43 40 34 29 26 24 23 21 18 16 16 14 13 11 9 6 6 5 5 4 3 3 4 3 2 2 4 3 1 359 355 351 351 353 357 1 2 358 352 347 344 344 344 342 336 330 324 317 307 293 272 254 246 244 247 248
179 181 182 184 183 177 168 159 153 150 148 146 141 136 131 122 113 105 98 91 84 80 77 73 70 65 60 55 51 46 41 37 31 27 24 22 20 18 16 15 14 13 12 10 7 6 6 6 5 3 3 4 4 3 3 4 1 358 358 357 352 350 350 353 0 6 2 353 347 345 346 346 343 337 333 328 322 312 298 282 263 247 237 238 243
179 181 180 181 184 178 169 160 155 153 151 148 143 137 130 121 112 105 97 91 86 82 79 76 73 69 64 59 56 52 46 41 36 31 28 25 22 20 18 16 14 12 11 11 10 7 6 7 7 5 3 4 5 3 1 1 1 359 359 358 354 351 351 352 356 5 5 356 347 344 346 348 345 337 335 334 329 319 305 289 273 256 240 232 234
179 182 181 181 180 177 172 165 160 157 154 148 144 140 133 124 114 105 97 92 89 86 82 79 74 70 67 62 58 55 50 45 40 35 31 28 26 25 23 20 17 14 12 12 11 9 7 8 9 7 5 4 4 3 1 359 -0 0 0 0 356 351 352 352 351 357 3 359 347 341 344 349 348 339 337 339 333 322 311 298 281 266 251 234 229
180 182 182 182 180 176 174 170 164 162 157 150 146 144 137 127 117 108 100 95 91 88 83 78 75 70 66 63 58 54 50 46 43 38 34 30 28 28 26 25 24 22 19 16 12 9 9 9 10 10 8 5 4 3 1 359 359 1 2 2 0 355 354 354 349 351 -0 360 349 343 347 352 349 339 341 347 340 328 320 311 293 275 262 244 231
182 183 182 183 181 178 177 174 169 166 161 155 151 148 141 130 121 112 105 99 92 88 83 78 74 71 67 62 58 54 50 46 43 40 35 31 29 27 26 25 26 26 25 24 18 13 10 10 11 13 12 8 6 4 3 0 359 1 2 3 4 0 358 359 358 358 2 1 353 349 352 356 351 344 353 3 354 343 335 323 308 288 270 253 238
185 185 183 183 182 181 179 177 174 171 166 162 157 151 143 134 125 116 106 99 92 86 81 77 74 71 67 63 57 52 49 45 42 40 36 32 28 25 24 24 25 25 24 25 23 19 15 13 13 14 14 12 9 5 4 3 2 3 3 4 5 4 3 4 5 5 5 3 359 356 357 0 358 355 8 17 9 0 349 332 316 300 282 261 244
189 187 186 185 183 182 182 181 181 178 172 167 160 150 143 136 128 120 108 100 93 86 80 76 73 69 65 61 56 50 46 42 40 37 35 32 28 24 24 24 24 24 23 23 23 21 19 16 14 15 15 14 12 9 7 6 6 6 6 7 8 7 7 8 9 10 9 6 5 3 1 4 4 1 12 24 17 11 5 351 327 304 294 274 252
189 188 188 186 185 184 183 183 184 181 177 171 159 149 143 136 128 121 112 102 93 86 81 76 71 68 63 60 55 49 44 40 37 35 33 31 29 26 27 27 26 25 25 24 22 22 21 19 15 14 15 15 14 13 12 9 9 8 7 9 10 10 9 8 9 12 12 10 10 8 6 7 7 4 9 21 16 16 22 22 5 330 307 288 267
190 190 189 186 186 184 181 181 183 183 179 171 158 149 144 138 132 128 118 105 94 87 83 76 70 66 62 57 52 46 42 39 36 35 33 31 29 28 28 28 26 26 27 27 24 23 22 21 18 15 15 17 16 16 17 16 12 11 10 10 11 11 11 8 7 10 13 13 13 12 10 11 11 9 14 25 20 20 27 32 35 41 28 295 281
193 191 189 186 183 181 180 180 182 184 180 169 158 151 147 143 140 137 124 106 97 89 81 73 67 62 56 51 47 42 38 37 36 34 32 30 29 29 28 27 25 24 25 25 24 23 22 21 20 18 16 18 19 18 20 21 19 16 14 13 11 12 12 9 6 9 13 16 16 14 13 16 18 15 18 29 34 30 30 33 39 48 60 75 267
195 192 190 187 181 179 181 183 183 183 178 167 158 153 150 150 150 144 130 115 104 90 78 68 60 56 49 42 39 37 35 35 34 32 31 29 27 27 26 25 25 24 22 19 18 19 19 18 18 18 18 19 20 20 21 23 24 23 21 17 15 14 14 13 13 13 13 15 18 18 16 17 22 24 23 23 23 28 34 37 39 46 58 79 127